Location: Butte
(46.0040°N, 112.5340°W)
Time: 03:29:50
(UTC-07:00)

Daily predictions for brighter satellites

Satellite Brightness Start Highest point End
(mag) Time Altitude Azimuth Time Altitude Azimuth Time Altitude Azimuth
Cosmos 2278 Rocket 4.5 03:44:16 18° ESE 03:44:16 18° ESE 03:45:43 10° SE
Atlas Centaur 2 4.4 04:08:15 24° SSE 04:08:15 24° SSE 04:14:27 10° ESE
Cosmos 2360 Rocket 4.5 04:22:23 13° N 04:22:23 13° N 04:23:09 10° N
Cosmos 2237 Rocket 3.0 04:20:39 49° E 04:20:39 49° E 04:25:44 10° NE
Cosmos 2333 Rocket 3.2 04:22:59 41° NE 04:22:59 41° NE 04:26:41 10° NNE
COSMOS 2428 4.4 04:24:50 23° NNE 04:24:50 23° NNE 04:26:59 10° NNE
USA 267 4.2 04:26:15 10° ENE 04:31:59 34° N 04:32:34 34° N
Cosmos 2061 Rocket 4.0 04:39:05 10° N 04:45:34 88° E 04:52:00 10° S
Cosmos 2219 Rocket 3.1 04:48:40 35° N 04:48:40 35° N 04:52:02 10° NNE
Cosmos 1980 3.6 04:52:37 81° N 04:52:37 81° N 04:58:01 10° NNE
SL-16 R/B 3.5 04:48:39 10° S 04:53:51 39° ESE 04:59:06 10° NE
Okean O Rocket 3.8 04:50:01 10° NNE 04:51:08 18° NNE 04:51:08 18° NNE
Cosmos 1486 Rocket 3.9 04:58:44 86° N 04:58:51 88° ENE 05:04:11 10° SSE
Meteor 2-10 Rocket 3.8 05:00:50 63° SW 05:00:50 63° SW 05:05:52 10° S
USA 229 DEB 4.0 04:57:16 33° NNW 05:00:42 67° NE 05:07:59 10° SE
USA 229 4.0 04:57:21 33° NNW 05:00:48 66° NE 05:08:04 10° SE
Cosmos 2242 Rocket 3.6 05:08:48 75° NE 05:09:02 78° E 05:13:27 10° SSE
Cosmos 2016 Rocket 3.8 05:03:13 10° N 05:09:23 77° W 05:15:28 10° S
Cosmos 1354 Rocket 4.4 05:09:07 25° N 05:12:07 62° ENE 05:17:17 10° SSE
CZ-4B R/B 3.1 05:06:29 10° NNE 05:12:11 80° WNW 05:17:51 10° SSW
ISS -1.2 05:14:49 14° SSE 05:14:49 14° SSE 05:15:27 10° SSE
Cosmos 1933 Rocket 4.3 05:09:46 10° S 05:13:59 52° E 05:18:15 10° NNE
Cosmos 1892 3.3 05:10:19 10° S 05:14:02 55° E 05:17:46 10° NNE
Cosmos 2297 3.6 05:12:15 38° NNW 05:14:36 88° ENE 05:20:20 10° SSE
COSMO-SKYMED 1 3.4 05:12:31 10° SE 05:16:41 49° ENE 05:20:54 10° N
DELTA 2 R/B (1) 4.3 05:15:58 38° SSW 05:17:13 44° S 05:22:29 10° ESE
ADEOS II 4.2 05:13:53 10° N 05:14:37 13° N 05:14:37 13° N
Cosmos 2369 Rocket 4.2 05:15:23 10° N 05:19:53 24° NE 05:24:21 10° E
PAYLOAD B 4.2 05:16:06 10° N 05:21:35 59° WNW 05:23:38 37° SW
Cosmos 2278 Rocket 3.3 05:26:13 28° SW 05:26:13 28° SW 05:29:25 10° SSW
Cosmos 967 Rocket 4.4 05:21:05 23° SW 05:25:19 86° WNW 05:31:48 10° NE
Cosmos 2173 Rocket 4.4 05:31:46 38° W 05:31:46 38° W 05:37:07 10° SSW
Cosmos 1862 Rocket 3.4 05:30:40 26° NNW 05:33:12 77° W 05:37:40 10° S
USA 116 4.4 05:30:33 10° S 05:35:43 65° W 05:41:06 10° NNW
EO 1 Del DPAF 3.2 05:32:57 10° SSE 05:36:47 84° ENE 05:39:01 24° N
Cosmos 1864 Rocket 4.4 05:31:10 10° NNW 05:37:26 66° W 05:43:35 10° S
Meteor 2-12 Rocket 4.3 05:33:43 10° NNW 05:39:44 68° W 05:45:44 10° S
Meteor 1-28 Rocket 4.1 05:36:14 10° S 05:38:41 34° SSW 05:38:41 34° SSW
Gbstr 26 Del rocket 3.2 05:41:13 46° WNW 05:42:02 53° NNW 05:45:58 10° ENE
In-Cosmos 22 Rocket 4.3 05:39:11 10° SSW 05:44:44 53° WNW 05:50:27 10° N
Cosmos 2084 Rocket 3.3 05:44:48 37° NNW 05:46:13 73° NE 05:50:04 10° SE
Cosmos 1408 4.1 05:43:06 10° SSE 05:46:36 40° E 05:50:08 10° NNE
SKYMED 3 4.4 05:42:16 10° SSE 05:46:37 82° WSW 05:50:59 10° NNW
Landsat 4 4.4 05:44:50 10° S 05:47:31 34° SW 05:47:31 34° SW
Lacrosse 5 rocket 2.9 05:47:35 10° SSW 05:51:54 40° SE 05:56:17 10° ENE
Cosmos 2233 Rocket 3.9 05:53:43 10° NNW 05:59:51 70° W 06:05:55 10° S
NOAA 6 3.9 05:58:00 10° N 06:03:08 73° WNW 06:08:13 10° SSW
Okean-O 2.5 05:59:27 10° N 06:03:52 69° WNW 06:08:16 10° SSW
Cosmos 2237 Rocket 3.0 06:02:33 25° W 06:04:32 30° NW 06:09:34 10° N
SKYMED 2 3.7 06:00:30 10° S 06:04:44 53° W 06:09:00 10° NNW
Cosmos 2333 Rocket 3.4 06:05:02 21° WNW 06:05:51 22° NW 06:10:16 10° N
Okean 1-7 3.5 06:02:07 10° N 06:06:31 65° E 06:10:51 10° SSE
Cosmos 2221 Rocket 4.2 06:02:09 10° N 06:06:34 59° E 06:10:59 10° SSE
COSMOS 2428 4.4 06:06:53 14° NW 06:06:53 14° NW 06:09:46 10° N
Cosmos 1470 Rocket 4.0 06:03:11 10° SW 06:07:21 38° WNW 06:11:32 10° N
Meteor 2-3 Rocket 3.7 06:01:56 10° SSW 06:07:40 64° WNW 06:13:22 10° N
Cosmos 1992 Rocket 3.9 06:02:59 10° SSW 06:08:14 87° WNW 06:13:30 10° NNE
Cosmos 1943 Rocket 3.7 06:04:41 10° NNW 06:09:51 35° NE 06:15:00 10° ESE
IDEFIX/ARIANE 42P 2.5 06:07:21 10° NNE 06:12:35 87° WNW 06:17:45 10° SSW
OPS 8737 4.4 06:10:37 16° SW 06:13:22 57° NW 06:16:41 10° NNE
Intercosmos 25 2.9 06:10:25 10° NNW 06:13:35 80° W 06:17:22 10° S
USA 267 3.8 06:07:56 10° E 06:14:11 50° NNE 06:19:54 13° NW
Cosmos 1782 2.7 06:12:33 10° N 06:16:33 80° W 06:20:30 10° S
Feng Yun 1-1 Rocket 4.4 06:11:04 10° N 06:16:53 59° WNW 06:22:41 10° SSW
Cosmos 1825 2.1 06:14:25 10° S 06:18:11 89° E 06:21:59 10° N
Thor Agena Rocket 3.5 06:18:28 10° SSE 06:23:34 88° ENE 06:28:40 10° NNW
ATLAS 5 CENTAUR R/B 4.3 06:22:46 10° S 06:26:32 25° ESE 06:30:32 10° ENE
Cosmos 1441 Rocket 3.6 06:23:12 10° N 06:27:01 63° ENE 06:30:44 10° SSE
Abrixas rocket 2.4 06:27:26 20° WNW 06:29:24 54° N 06:32:34 10° ENE
Cosmos 1606 2.8 06:26:07 10° NNW 06:29:49 52° W 06:33:31 10° S
Ariane Rocket 4.3 06:25:19 10° NNE 06:30:11 44° E 06:34:59 10° S
Cosmos 2219 Rocket 3.9 06:30:25 13° NW 06:31:42 13° NW 06:34:24 10° N
Cosmos 1703 Rocket 3.8 06:27:40 10° NNW 06:31:55 47° W 06:36:05 10° SSW
NOSS 3-1 (C) 4.1 06:24:49 10° NW 06:32:20 73° SW 06:40:42 10° SSE
PAYLOAD A 4.2 06:30:54 10° N 06:35:54 52° WNW 06:41:02 10° SW
SL-16 R/B 2.7 06:32:47 10° WSW 06:38:00 37° NW 06:43:16 10° NNE
Cosmos 1869 Rocket 3.5 06:35:24 10° SSW 06:39:43 65° W 06:44:07 10° N
ATLAS 2AS CENTAUR R/B 4.2 06:34:03 10° NNW 06:41:23 35° NNE 06:48:22 10° E
Cosmos 1603 3.7 06:36:43 10° SSW 06:42:21 85° WNW 06:48:05 10° NNE
Cosmos 968 Rocket 3.7 06:39:12 10° NNW 06:44:19 52° WSW 06:49:25 10° S
COSMOS 2441 4.4 06:42:50 10° N 06:47:45 71° WNW 06:52:36 10° SSW
Cosmos 1862 3.3 06:45:21 10° S 06:49:18 89° W 06:53:18 10° N
SJ-7 4.4 06:48:56 10° NNE 06:52:59 86° ESE 06:56:58 10° SSW
COSMO-SKYMED 1 4.1 06:50:12 10° SW 06:53:07 18° W 06:56:04 10° NW
Cosmos 2034 Rocket 4.0 06:47:01 10° N 06:53:20 83° W 06:59:32 10° S
CZ-4 R/B 2.2 06:49:43 10° NNE 06:53:33 54° E 06:57:25 10° S
MSX 3.9 06:48:30 10° N 06:54:15 65° WNW 06:59:56 10° SSW
Cosmos 405 Rocket 2.9 06:50:45 10° NNW 06:54:19 46° W 06:57:53 10° S
CZ-2C R/B 2.8 06:49:48 10° N 06:54:48 48° WNW 06:59:43 10° SW
NOSS 3-1 (A) 4.1 06:47:38 10° NW 06:55:10 72° SW 07:03:31 10° SSE
SJ-12 4.2 06:58:13 10° N 07:02:11 44° WNW 07:06:05 10° SW
Cosmos 2369 Rocket 2.2 06:58:51 10° NNW 07:04:24 66° WSW 07:09:56 10° SSE
IRAS Rocket 4.2 07:00:50 10° NNE 07:06:21 78° WNW 07:11:49 10° SSW
